Volver al catálogo

STARLINK-31477

ActivoComunicacionesVLEO
NORAD 59314·PAYLOAD·🇺🇸 United States

Lanzado Mar 24, 2024 desde Cape Canaveral Space Force Station

Loading…

Próximos Pases (próximas 24 horas)

TLE

ActualizadoSource: CelesTrak SupGP

Época: Sep 15, 2026, 02:04 UTC

1 59314C 24056U   26258.08659722 -.00030207  00000+0 -10941-2 0  2589
2 59314  43.0020 233.5867 0001416 270.0675 207.8201 15.27593835    15

Sigue STARLINK-31477 en tiempo real con AllMySat

Download on the App Store